Flag for Germany Weather past 2 weeks in Alfeld (Leine), Lower Saxony, Germany

39 °F

Light rain. Partly sunny.

Feels Like: 32 °F
Forecast: 39 / 50 °F
Wind: 10 mph from West

Location: Hannover

Current Time: Nov 28, 2015 at 9:20:25 AM

Latest Report: Nov 28, 2015 at 8:50 AM

Visibility: N/A

Pressure: 29.65 "Hg

Humidity: 93%

Dew point: 37 °F

Location of Alfeld (Leine)Location

Historic Weather in Alfeld (Leine) — Graph


Alfeld (Leine) temperature yesterday

Maximum temperature yesterday: 43 °F (at 11:50 AM)
Minimum temperature yesterday: 32 °F (at 1:20 AM)
Average temperature yesterday: 37 °F

Past Weeks' High & Low Weather Summary

High59 °F (Nov 13, 12:50 PM)100% (Nov 14, 9:20 PM)30.21 "Hg (Nov 14, 9:20 PM)
Low32 °F (Nov 21, 11:50 PM)54% (Nov 13, 4:50 PM)29.33 "Hg (Nov 21, 5:20 AM)
Average45 °F88%29.80 "Hg
* Reported Nov 13 7:20 AM — Nov 28 7:20 AM, Alfeld (Leine), Weather by CustomWeather, © 2015

Note: Actual official high and low records may vary slightly from our data, if they occured in-between our weather recording intervals... More about our weather records


Alfeld (Leine) weather history for previous 24 hours

Time TempWeatherWind HumidityBarometerVisibility
7:20 AM
Sat, Nov 28
37 °FLight rain. Passing clouds.10 mph93%29.62 "HgN/A
6:50 AM37 °FPassing clouds.14 mph87%29.62 "HgN/A
6:20 AM37 °FPassing clouds.12 mph87%29.62 "HgN/A
5:50 AM37 °FPassing clouds.17 mph87%29.62 "HgN/A
5:20 AM37 °FPassing clouds.15 mph87%29.65 "HgN/A
4:50 AM37 °FPassing clouds.17 mph81%29.65 "HgN/A
4:20 AM37 °FPassing clouds.18 mph81%29.65 "HgN/A
3:50 AM37 °FPassing clouds.13 mph81%29.65 "HgN/A
3:20 AM37 °FPartly cloudy.13 mph81%29.68 "HgN/A
2:50 AM36 °FPassing clouds.14 mph87%29.71 "HgN/A
2:20 AM36 °FPassing clouds.16 mph87%29.71 "HgN/A
12:50 AM36 °FPassing clouds.14 mph87%29.77 "HgN/A
12:20 AM36 °FPassing clouds.15 mph87%29.77 "HgN/A
11:50 PM
Fri, Nov 27
36 °FPassing clouds.15 mph87%29.80 "HgN/A
11:20 PM36 °FPassing clouds.13 mph87%29.80 "HgN/A
10:50 PM36 °FPassing clouds.14 mph87%29.80 "HgN/A
10:20 PM36 °FPassing clouds.16 mph87%29.83 "HgN/A
9:50 PM36 °FPassing clouds.15 mph87%29.83 "HgN/A
9:20 PM34 °FClear.13 mph93%29.86 "Hg10 mi
8:50 PM36 °FClear.12 mph87%29.86 "Hg10 mi
8:20 PM36 °FClear.9 mph87%29.86 "Hg10 mi
7:50 PM36 °FClear.13 mph87%29.89 "Hg10 mi
7:20 PM36 °FClear.13 mph87%29.89 "Hg10 mi
6:50 PM37 °FClear.13 mph87%29.89 "Hg10 mi
6:20 PM37 °FClear.12 mph87%29.92 "Hg10 mi
5:50 PM37 °FClear.12 mph87%29.92 "Hg10 mi
5:20 PM39 °FClear.12 mph81%29.92 "Hg10 mi
4:50 PM39 °FClear.10 mph81%29.92 "Hg10 mi
4:20 PM39 °FClear.12 mph81%29.95 "Hg10 mi
3:50 PM41 °FSunny.13 mph76%29.95 "Hg10 mi
3:20 PM41 °FSunny.12 mph81%29.95 "Hg10 mi
2:50 PM43 °FSunny.12 mph76%29.98 "Hg10 mi
2:20 PM43 °FSunny.10 mph76%29.98 "Hg10 mi
1:50 PM43 °FSunny.10 mph76%29.98 "Hg10 mi
1:20 PM43 °FSunny.9 mph81%30.01 "Hg10 mi
12:50 PM43 °FSunny.10 mph76%30.01 "Hg10 mi
12:20 PM43 °FSunny.9 mph81%30.01 "Hg10 mi
11:50 AM43 °FSunny.10 mph76%30.04 "Hg10 mi
11:20 AM41 °FSunny.9 mph87%30.04 "Hg10 mi
10:50 AM41 °FClear.7 mph87%30.07 "Hg5 mi
10:20 AM39 °FClear.7 mph87%30.07 "Hg4 mi
9:50 AM37 °FClear.7 mph93%30.07 "Hg4 mi
9:20 AM37 °FFog.8 mph93%30.07 "Hg3 mi
Weather by CustomWeather, © 2015

See weather overviewHow to use our weather pages